When you browse on this site, cookies collect data to enhance your experience and personalize the content and advertising you see.
Visit our Privacy Policy to learn more. By continuing to use the site, you agree to this use of cookies and data.
  • In Romania
  • List of Countries
  • For 7 days
  • Water Temperature
  • Satellite Maps
  • Weather Map
  • Weather Widgets
  • user-avatar
    Login

    Hourly Weather Mniszow

    Today, 12 December, Wednesday

    Time Temperature Precipitation Wind Pressure Humidity
    00:00 +1°C° 0.1 mm 1 mps 740 mmHg 93%
    01:00 -1°C° 0 mm 2 mps 740 mmHg 92%
    02:00 -1°C° 0.1 mm 2 mps 740 mmHg 93%
    03:00 -1°C° 0.1 mm 2 mps 740 mmHg 93%
    04:00 +1°C° 0.1 mm 1 mps 740 mmHg 94%
    05:00 +1°C° 0 mm 1 mps 741 mmHg 94%
    06:00 -2°C° 0 mm 2 mps 741 mmHg 94%
    07:00 -2°C° 0 mm 2 mps 742 mmHg 93%
    08:00 -1°C° 0.1 mm 2 mps 742 mmHg 91%
    09:00 -1°C° 0.1 mm 2 mps 742 mmHg 89%
    10:00 +1°C° 0.1 mm 2 mps 743 mmHg 87%
    11:00 +1°C° 0.1 mm 2 mps 743 mmHg 86%
    12:00 +1°C° 0.1 mm 2 mps 743 mmHg 84%
    13:00 +1°C° 0.1 mm 2 mps 743 mmHg 83%
    14:00 +1°C° 0 mm 2 mps 744 mmHg 85%
    15:00 -1°C° 0 mm 2 mps 744 mmHg 87%
    16:00 +1°C° 0 mm 1 mps 744 mmHg 89%
    17:00 0°C° 0 mm 1 mps 744 mmHg 90%
    18:00 0°C° 0 mm 1 mps 745 mmHg 91%
    19:00 0°C° 0 mm 1 mps 745 mmHg 92%
    20:00 0°C° 0 mm 1 mps 745 mmHg 92%
    21:00 -1°C° 0 mm 1 mps 745 mmHg 92%
    22:00 -1°C° 0 mm 1 mps 745 mmHg 92%
    23:00 -2°C° 0.1 mm 2 mps 746 mmHg 92%

    Tomorrow, 13 December, Thursday

    Time Temperature Precipitation Wind Pressure Humidity
    00:00 -2°C° 0.1 mm 2 mps 746 mmHg 92%
    01:00 -2°C° 0.1 mm 2 mps 746 mmHg 92%
    02:00 -2°C° 0.1 mm 2 mps 745 mmHg 92%
    03:00 -2°C° 0.1 mm 2 mps 745 mmHg 92%
    04:00 -2°C° 0.1 mm 2 mps 745 mmHg 92%
    05:00 -2°C° 0.1 mm 2 mps 745 mmHg 92%
    06:00 -2°C° 0.1 mm 2 mps 745 mmHg 93%
    07:00 -2°C° 0.1 mm 2 mps 745 mmHg 93%
    08:00 -1°C° 0.1 mm 2 mps 745 mmHg 92%
    09:00 -1°C° 0.1 mm 2 mps 745 mmHg 90%
    10:00 -1°C° 0.1 mm 2 mps 745 mmHg 89%
    11:00 -1°C° 0.1 mm 2 mps 745 mmHg 88%
    12:00 +1°C° 0.1 mm 2 mps 745 mmHg 87%
    13:00 +1°C° 0.1 mm 2 mps 745 mmHg 86%
    14:00 -1°C° 0 mm 2 mps 745 mmHg 88%
    15:00 +1°C° 0 mm 1 mps 745 mmHg 89%
    16:00 +1°C° 0 mm 1 mps 745 mmHg 91%
    17:00 +1°C° 0 mm 1 mps 745 mmHg 91%
    18:00 0°C° 0 mm 1 mps 745 mmHg 91%
    19:00 0°C° 0 mm 1 mps 745 mmHg 91%
    20:00 0°C° 0 mm 1 mps 746 mmHg 91%
    21:00 0°C° 0 mm 1 mps 746 mmHg 91%
    22:00 0°C° 0 mm 1 mps 746 mmHg 91%
    23:00 0°C° 0 mm 1 mps 746 mmHg 90%

    Day after tomorrow, 14 December, Friday

    Time Temperature Precipitation Wind Pressure Humidity
    00:00 -1°C° 0 mm 1 mps 746 mmHg 89%
    01:00 -1°C° 0 mm 1 mps 746 mmHg 88%
    02:00 -1°C° 0 mm 1 mps 746 mmHg 87%
    03:00 -1°C° 0 mm 1 mps 746 mmHg 87%
    04:00 -1°C° 0 mm 1 mps 746 mmHg 87%
    05:00 -1°C° 0 mm 1 mps 747 mmHg 87%
    06:00 -1°C° 0 mm 1 mps 747 mmHg 87%
    07:00 -2°C° 0 mm 1 mps 747 mmHg 88%
    08:00 -1°C° 0 mm 1 mps 747 mmHg 84%
    09:00 -1°C° 0 mm 1 mps 747 mmHg 81%
    10:00 0°C° 0 mm 1 mps 748 mmHg 78%
    11:00 0°C° 0 mm 1 mps 747 mmHg 76%
    12:00 -2°C° 0 mm 2 mps 747 mmHg 75%
    13:00 -1°C° 0 mm 2 mps 747 mmHg 73%
    14:00 -2°C° 0 mm 2 mps 747 mmHg 77%
    15:00 -2°C° 0 mm 2 mps 747 mmHg 81%
    16:00 -1°C° 0 mm 1 mps 748 mmHg 85%
    17:00 -3°C° 0 mm 2 mps 748 mmHg 87%
    18:00 -3°C° 0 mm 2 mps 748 mmHg 88%
    19:00 -2°C° 0 mm 2 mps 748 mmHg 90%
    20:00 -3°C° 0 mm 2 mps 748 mmHg 91%
    21:00 -3°C° 0 mm 2 mps 748 mmHg 92%
    22:00 -3°C° 0 mm 2 mps 748 mmHg 94%
    23:00 -3°C° 0 mm 2 mps 748 mmHg 94%

    15 December, Saturday

    Time Temperature Precipitation Wind Pressure Humidity
    00:00 -3°C° 0 mm 2 mps 748 mmHg 94%
    01:00 -3°C° 0 mm 2 mps 748 mmHg 94%
    02:00 -4°C° 0 mm 3 mps 748 mmHg 94%
    03:00 -4°C° 0 mm 3 mps 748 mmHg 94%
    04:00 -4°C° 0 mm 3 mps 748 mmHg 94%
    05:00 -4°C° 0 mm 4 mps 748 mmHg 92%
    06:00 -3°C° 0 mm 4 mps 748 mmHg 91%
    07:00 -3°C° 0 mm 4 mps 748 mmHg 89%
    08:00 -4°C° 0 mm 5 mps 748 mmHg 87%
    09:00 -4°C° 0 mm 5 mps 748 mmHg 84%
    10:00 -4°C° 0 mm 5 mps 748 mmHg 82%
    11:00 -4°C° 0 mm 5 mps 748 mmHg 81%
    12:00 -4°C° 0 mm 5 mps 748 mmHg 80%
    13:00 -4°C° 0 mm 5 mps 748 mmHg 78%
    14:00 -4°C° 0 mm 5 mps 748 mmHg 80%
    15:00 -4°C° 0 mm 5 mps 748 mmHg 81%
    16:00 -5°C° 0 mm 5 mps 748 mmHg 82%
    17:00 -5°C° 0.1 mm 5 mps 748 mmHg 82%
    18:00 -5°C° 0.1 mm 5 mps 748 mmHg 83%
    19:00 -5°C° 0.1 mm 5 mps 748 mmHg 83%
    20:00 -5°C° 0.2 mm 5 mps 748 mmHg 85%
    21:00 -5°C° 0.2 mm 5 mps 748 mmHg 86%
    22:00 -5°C° 0.2 mm 5 mps 747 mmHg 87%
    23:00 -5°C° 0.3 mm 5 mps 747 mmHg 89%

    16 December, Sunday

    Time Temperature Precipitation Wind Pressure Humidity
    00:00 -4°C° 0.3 mm 4 mps 747 mmHg 90%
    01:00 -4°C° 0.3 mm 4 mps 747 mmHg 91%
    02:00 -4°C° 0.3 mm 4 mps 747 mmHg 92%
    03:00 -4°C° 0.3 mm 3 mps 746 mmHg 92%
    04:00 -2°C° 0.3 mm 3 mps 746 mmHg 93%
    05:00 -2°C° 0.2 mm 3 mps 746 mmHg 93%
    06:00 -2°C° 0.2 mm 2 mps 746 mmHg 94%
    07:00 -2°C° 0.2 mm 2 mps 746 mmHg 94%
    08:00 -2°C° 0.1 mm 2 mps 746 mmHg 93%
    09:00 -2°C° 0.1 mm 2 mps 746 mmHg 92%
    10:00 -1°C° 0.1 mm 2 mps 746 mmHg 91%
    11:00 -1°C° 0 mm 2 mps 746 mmHg 91%
    12:00 +1°C° 0 mm 2 mps 746 mmHg 92%
    13:00 +1°C° 0 mm 2 mps 745 mmHg 92%
    14:00 +1°C° 0 mm 2 mps 745 mmHg 93%
    15:00 -1°C° 0 mm 2 mps 745 mmHg 93%
    16:00 -1°C° 0 mm 2 mps 745 mmHg 94%
    17:00 -1°C° 0 mm 2 mps 745 mmHg 94%
    18:00 -1°C° 0 mm 2 mps 745 mmHg 94%
    19:00 -1°C° 0 mm 2 mps 745 mmHg 93%
    20:00 -1°C° 0 mm 2 mps 745 mmHg 93%
    21:00 -1°C° 0 mm 2 mps 745 mmHg 92%
    22:00 -1°C° 0 mm 2 mps 745 mmHg 92%
    23:00 -1°C° 0 mm 2 mps 744 mmHg 91%

    17 December, Monday

    Time Temperature Precipitation Wind Pressure Humidity
    00:00 -1°C° 0 mm 2 mps 744 mmHg 90%
    01:00 +2°C° 0 mm 1 mps 744 mmHg 89%
    02:00 +1°C° 0 mm 2 mps 744 mmHg 89%
    03:00 +1°C° 0 mm 2 mps 743 mmHg 89%
    04:00 +1°C° 0 mm 2 mps 743 mmHg 88%
    05:00 +1°C° 0 mm 2 mps 743 mmHg 89%
    06:00 +1°C° 0 mm 2 mps 743 mmHg 89%
    07:00 +1°C° 0 mm 2 mps 743 mmHg 89%
    08:00 +2°C° 0 mm 2 mps 743 mmHg 90%
    09:00 +3°C° 0 mm 1 mps 743 mmHg 90%
    10:00 +4°C° 0 mm 1 mps 744 mmHg 91%
    11:00 +4°C° 0 mm 1 mps 743 mmHg 92%
    12:00 +4°C° 0 mm 1 mps 743 mmHg 92%
    13:00 +4°C° 0 mm 1 mps 743 mmHg 93%
    14:00 +3°C° 0.2 mm 1 mps 743 mmHg 93%
    15:00 +3°C° 0.2 mm 1 mps 743 mmHg 94%
    16:00 +3°C° 0.2 mm 1 mps 743 mmHg 94%
    17:00 +3°C° 0.2 mm 1 mps 743 mmHg 94%
    18:00 +3°C° 0.2 mm 1 mps 744 mmHg 95%
    19:00 +2°C° 0.2 mm 1 mps 744 mmHg 95%
    20:00 +2°C° 0.1 mm 1 mps 745 mmHg 95%
    21:00 +1°C° 0.1 mm 2 mps 745 mmHg 95%
    22:00 +1°C° 0.1 mm 2 mps 745 mmHg 96%
    23:00 +1°C° 0 mm 2 mps 746 mmHg 95%
    Show more